| time (UTC) | temp C | wind direction | speed KPH | gust KPH | rain 1hr cm | rain 24hr cm | rain mn cm | humidity % | barometer mb |
| 20260906234745 | 16 | 205 | 11.3 | 33.8 | 0.00 | 0.00 | 0.00 | 50 | 1021.5 |
| 20260906234510 | 16 | 199 | 9.7 | 30.6 | 0.00 | 0.00 | 0.00 | 49 | 1021.5 |
| 20260906233744 | 16 | 190 | 8.0 | 35.4 | 0.00 | 0.00 | 0.00 | 49 | 1021.5 |
| 20260906233245 | 16 | 209 | 8.0 | 35.4 | 0.00 | 0.00 | 0.00 | 48 | 1021.7 |
| 20260906232744 | 17 | 200 | 12.9 | 37.0 | 0.00 | 0.00 | 0.00 | 48 | 1021.7 |
| 20260906232243 | 17 | 182 | 11.3 | 37.0 | 0.00 | 0.00 | 0.00 | 47 | 1021.9 |
| 20260906232014 | 17 | 155 | 9.7 | 30.6 | 0.00 | 0.00 | 0.00 | 45 | 1022.1 |
| 20260906231243 | 17 | 188 | 11.3 | 41.8 | 0.00 | 0.00 | 0.00 | 44 | 1022.2 |
| 20260906230743 | 18 | 155 | 9.7 | 41.8 | 0.00 | 0.00 | 0.00 | 42 | 1022.3 |
| 20260906230244 | 18 | 165 | 9.7 | 25.7 | 0.00 | 0.00 | 0.00 | 41 | 1022.3 |
| 20260906225745 | 18 | 178 | 11.3 | 25.7 | 0.00 | 0.00 | 0.00 | 40 | 1022.3 |
| 20260906225245 | 19 | 182 | 9.7 | 25.7 | 0.00 | 0.00 | 0.00 | 37 | 1022.2 |
| 20260906224729 | 20 | 208 | 6.4 | 24.1 | 0.00 | 0.00 | 0.00 | 34 | 1022.1 |
| 20260906224224 | 20 | 157 | 8.0 | 24.1 | 0.00 | 0.00 | 0.00 | 33 | 1022.0 |
| 20260906223717 | 20 | 151 | 4.8 | 24.1 | 0.00 | 0.00 | 0.00 | 32 | 1021.9 |
| 20260906223207 | 20 | 187 | 3.2 | 25.7 | 0.00 | 0.00 | 0.00 | 30 | 1021.6 |
| 20260906222919 | 20 | 211 | 4.8 | 25.7 | 0.00 | 0.00 | 0.00 | 29 | 1021.5 |
| 20260906222157 | 21 | 203 | 4.8 | 17.7 | 0.00 | 0.00 | 0.00 | 28 | 1021.4 |
| 20260906221642 | 21 | 167 | 6.4 | 17.7 | 0.00 | 0.00 | 0.00 | 27 | 1021.5 |
| 20260906221353 | 21 | 146 | 4.8 | 17.7 | 0.00 | 0.00 | 0.00 | 27 | 1021.4 |
| 20260906220630 | 21 | 193 | 4.8 | 19.3 | 0.00 | 0.00 | 0.00 | 27 | 1021.5 |
| 20260906220120 | 21 | 200 | 3.2 | 16.1 | 0.00 | 0.00 | 0.00 | 26 | 1021.4 |
| 20260906215614 | 21 | 198 | 4.8 | 17.7 | 0.00 | 0.00 | 0.00 | 26 | 1021.5 |
| 20260906215108 | 21 | 190 | 6.4 | 25.7 | 0.00 | 0.00 | 0.00 | 26 | 1021.5 |
| 20260906214555 | 21 | 173 | 6.4 | 25.7 | 0.00 | 0.00 | 0.00 | 25 | 1021.5 |
| 20260906214048 | 21 | 168 | 3.2 | 19.3 | 0.00 | 0.00 | 0.00 | 25 | 1021.4 |
| 20260906213542 | 21 | 150 | 3.2 | 12.9 | 0.00 | 0.00 | 0.00 | 25 | 1021.5 |
| 20260906213032 | 22 | 198 | 4.8 | 16.1 | 0.00 | 0.00 | 0.00 | 25 | 1021.5 |
| 20260906212742 | 22 | 153 | 4.8 | 16.1 | 0.00 | 0.00 | 0.00 | 25 | 1021.5 |
| 20260906212020 | 22 | 192 | 4.8 | 20.9 | 0.00 | 0.00 | 0.00 | 26 | 1021.4 |
| 20260906211507 | 22 | 164 | 3.2 | 20.9 | 0.00 | 0.00 | 0.00 | 25 | 1021.2 |
| 20260906211000 | 22 | 155 | 4.8 | 20.9 | 0.00 | 0.00 | 0.00 | 25 | 1021.2 |
| 20260906210454 | 22 | 135 | 6.4 | 22.5 | 0.00 | 0.00 | 0.00 | 25 | 1021.2 |
| 20260906210204 | 22 | 145 | 4.8 | 22.5 | 0.00 | 0.00 | 0.00 | 26 | 1021.4 |
| 20260906205709 | 22 | 151 | 3.2 | 19.3 | 0.00 | 0.00 | 0.00 | 27 | 1021.2 |
| 20260906204932 | 22 | 80 | 1.6 | 19.3 | 0.00 | 0.00 | 0.00 | 26 | 1021.4 |
| 20260906204418 | 22 | 77 | 1.6 | 11.3 | 0.00 | 0.00 | 0.00 | 26 | 1021.4 |
| 20260906203912 | 22 | 98 | 1.6 | 16.1 | 0.00 | 0.00 | 0.00 | 26 | 1021.4 |
| 20260906203406 | 22 | 89 | 1.6 | 16.1 | 0.00 | 0.00 | 0.00 | 26 | 1021.5 |
| 20260906203114 | 22 | 112 | 3.2 | 19.3 | 0.00 | 0.00 | 0.00 | 27 | 1021.5 |
| 20260906202351 | 22 | 67 | 4.8 | 19.3 | 0.00 | 0.00 | 0.00 | 26 | 1021.5 |
| 20260906201844 | 22 | 112 | 6.4 | 20.9 | 0.00 | 0.00 | 0.00 | 26 | 1021.6 |
| 20260906201330 | 22 | 67 | 9.7 | 20.9 | 0.00 | 0.00 | 0.00 | 26 | 1021.5 |
| 20260906200825 | 22 | 97 | 6.4 | 17.7 | 0.00 | 0.00 | 0.00 | 26 | 1021.5 |
| 20260906200319 | 22 | 129 | 3.2 | 17.7 | 0.00 | 0.00 | 0.00 | 26 | 1021.6 |
| 20260906195809 | 22 | 53 | 3.2 | 14.5 | 0.00 | 0.00 | 0.00 | 26 | 1021.6 |
| 20260906195306 | 23 | 120 | 3.2 | 17.7 | 0.00 | 0.00 | 0.00 | 25 | 1021.6 |
| 20260906195016 | 23 | 107 | 3.2 | 17.7 | 0.00 | 0.00 | 0.00 | 24 | 1021.7 |
| 20260906194242 | 23 | 128 | 3.2 | 12.9 | 0.00 | 0.00 | 0.00 | 26 | 1021.7 |
| 20260906194000 | 23 | 84 | 3.2 | 14.5 | 0.00 | 0.00 | 0.00 | 24 | 1021.7 |
| 20260906193230 | 23 | 110 | 1.6 | 14.5 | 0.00 | 0.00 | 0.00 | 25 | 1021.9 |
| 20260906192728 | 23 | 114 | 3.2 | 16.1 | 0.00 | 0.00 | 0.00 | 24 | 1022.0 |
| 20260906192227 | 23 | 96 | 1.6 | 16.1 | 0.00 | 0.00 | 0.00 | 24 | 1022.0 |
| 20260906191727 | 23 | 138 | 1.6 | 14.5 | 0.00 | 0.00 | 0.00 | 25 | 1022.1 |
| 20260906191227 | 23 | 146 | 1.6 | 14.5 | 0.00 | 0.00 | 0.00 | 26 | 1022.1 |
| 20260906190725 | 22 | 88 | 1.6 | 19.3 | 0.00 | 0.00 | 0.00 | 26 | 1022.1 |
| 20260906190225 | 22 | 137 | 4.8 | 19.3 | 0.00 | 0.00 | 0.00 | 26 | 1022.2 |
| 20260906185726 | 22 | 80 | 4.8 | 14.5 | 0.00 | 0.00 | 0.00 | 26 | 1022.3 |
| 20260906185225 | 22 | 61 | 4.8 | 14.5 | 0.00 | 0.00 | 0.00 | 27 | 1022.3 |
| 20260906184725 | 22 | 126 | 3.2 | 16.1 | 0.00 | 0.00 | 0.00 | 27 | 1022.5 |
| 20260906184226 | 22 | 98 | 1.6 | 16.1 | 0.00 | 0.00 | 0.00 | 27 | 1022.6 |
| 20260906183726 | 22 | 110 | 0.0 | 4.8 | 0.00 | 0.00 | 0.00 | 27 | 1022.7 |
| 20260906183226 | 22 | 98 | 0.0 | 4.8 | 0.00 | 0.00 | 0.00 | 28 | 1022.8 |
| 20260906182726 | 22 | 67 | 0.0 | 1.6 | 0.00 | 0.00 | 0.00 | 28 | 1022.8 |
| 20260906182441 | 22 | 51 | 0.0 | 1.6 | 0.00 | 0.00 | 0.00 | 28 | 1023.0 |
| 20260906181715 | 21 | 273 | 0.0 | 1.6 | 0.00 | 0.00 | 0.00 | 28 | 1023.0 |
| 20260906181439 | 22 | 311 | 0.0 | 0.0 | 0.00 | 0.00 | 0.00 | 28 | 1023.0 |
| 20260906180712 | 21 | 241 | 0.0 | 0.0 | 0.00 | 0.00 | 0.00 | 29 | 1022.8 |
| 20260906180440 | 21 | 274 | 0.0 | 0.0 | 0.00 | 0.00 | 0.00 | 29 | 1023.1 |
| 20260906175711 | 21 | 190 | 0.0 | 0.0 | 0.00 | 0.00 | 0.00 | 29 | 1023.2 |
| 20260906175212 | 21 | 64 | 0.0 | 1.6 | 0.00 | 0.00 | 0.00 | 29 | 1023.1 |
| 20260906174712 | 21 | 101 | 0.0 | 1.6 | 0.00 | 0.00 | 0.00 | 29 | 1023.0 |
| 20260906174208 | 21 | 34 | 0.0 | 0.0 | 0.00 | 0.00 | 0.00 | 29 | 1023.1 |
| 20260906173710 | 21 | 309 | 0.0 | 0.0 | 0.00 | 0.00 | 0.00 | 29 | 1023.6 |
| 20260906173208 | 21 | 69 | 0.0 | 6.4 | 0.00 | 0.00 | 0.00 | 30 | 1023.5 |
| 20260906172934 | 21 | 323 | 0.0 | 6.4 | 0.00 | 0.00 | 0.00 | 29 | 1023.3 |
| 20260906172209 | 21 | 56 | 0.0 | 6.4 | 0.00 | 0.00 | 0.00 | 29 | 1023.5 |
| 20260906171708 | 21 | 59 | 0.0 | 6.4 | 0.00 | 0.00 | 0.00 | 29 | 1023.7 |
| 20260906171210 | 21 | 46 | 0.0 | 1.6 | 0.00 | 0.00 | 0.00 | 30 | 1023.6 |
| 20260906170709 | 20 | 325 | 0.0 | 6.4 | 0.00 | 0.00 | 0.00 | 31 | 1023.8 |
| 20260906170208 | 20 | 236 | 0.0 | 6.4 | 0.00 | 0.00 | 0.00 | 32 | 1023.8 |
| 20260906165710 | 20 | 249 | 0.0 | 4.8 | 0.00 | 0.00 | 0.00 | 32 | 1023.8 |
| 20260906165206 | 19 | 278 | 0.0 | 4.8 | 0.00 | 0.00 | 0.00 | 31 | 1023.8 |
| 20260906164705 | 20 | 288 | 0.0 | 1.6 | 0.00 | 0.00 | 0.00 | 30 | 1023.9 |
| 20260906164425 | 20 | 336 | 0.0 | 1.6 | 0.00 | 0.00 | 0.00 | 30 | 1024.1 |
| 20260906163705 | 20 | 0 | 0.0 | 1.6 | 0.00 | 0.00 | 0.00 | 31 | 1024.1 |
| 20260906163205 | 20 | 294 | 0.0 | 1.6 | 0.00 | 0.00 | 0.00 | 31 | 1024.2 |
| 20260906162705 | 19 | 59 | 0.0 | 0.0 | 0.00 | 0.00 | 0.00 | 31 | 1024.2 |
| 20260906162205 | 19 | 279 | 0.0 | 9.7 | 0.00 | 0.00 | 0.00 | 32 | 1024.2 |
| 20260906161706 | 18 | 0 | 0.0 | 9.7 | 0.00 | 0.00 | 0.00 | 31 | 1024.2 |
| 20260906161159 | 18 | 298 | 0.0 | 0.0 | 0.00 | 0.00 | 0.00 | 31 | 1024.1 |
| 20260906160648 | 18 | 303 | 0.0 | 0.0 | 0.00 | 0.00 | 0.00 | 33 | 1024.1 |
| 20260906160142 | 18 | 294 | 0.0 | 4.8 | 0.00 | 0.00 | 0.00 | 33 | 1024.2 |
| 20260906155638 | 18 | 292 | 0.0 | 4.8 | 0.00 | 0.00 | 0.00 | 33 | 1024.2 |
| 20260906155348 | 18 | 269 | 0.0 | 1.6 | 0.00 | 0.00 | 0.00 | 34 | 1024.2 |
| 20260906154617 | 17 | 312 | 0.0 | 1.6 | 0.00 | 0.00 | 0.00 | 36 | 1024.2 |
| 20260906154112 | 17 | 320 | 0.0 | 0.0 | 0.00 | 0.00 | 0.00 | 37 | 1024.3 |
| 20260906153601 | 17 | 285 | 0.0 | 1.6 | 0.00 | 0.00 | 0.00 | 38 | 1024.2 |
| 20260906153334 | 16 | 309 | 0.0 | 1.6 | 0.00 | 0.00 | 0.00 | 39 | 1024.4 |
| 20260906152549 | 16 | 274 | 0.0 | 0.0 | 0.00 | 0.00 | 0.00 | 40 | 1024.4 |
| 20260906152035 | 16 | 277 | 0.0 | 1.6 | 0.00 | 0.00 | 0.00 | 42 | 1024.4 |
| 20260906151754 | 16 | 277 | 0.0 | 1.6 | 0.00 | 0.00 | 0.00 | 42 | 1024.4 |
| 20260906151023 | 16 | 277 | 0.0 | 0.0 | 0.00 | 0.00 | 0.00 | 44 | 1024.3 |
| 20260906150513 | 15 | 275 | 0.0 | 0.0 | 0.00 | 0.00 | 0.00 | 44 | 1024.4 |
| 20260906150007 | 16 | 279 | 0.0 | 0.0 | 0.00 | 0.00 | 0.00 | 42 | 1024.4 |
| 20260906145500 | 16 | 261 | 0.0 | 0.0 | 0.00 | 0.00 | 0.00 | 43 | 1024.4 |
| 20260906144947 | 16 | 252 | 0.0 | 0.0 | 0.00 | 0.00 | 0.00 | 43 | 1024.3 |
| 20260906144441 | 16 | 252 | 0.0 | 0.0 | 0.00 | 0.00 | 0.00 | 42 | 1024.3 |
| 20260906143934 | 16 | 252 | 0.0 | 0.0 | 0.00 | 0.00 | 0.00 | 42 | 1024.3 |
| 20260906143426 | 16 | 252 | 0.0 | 0.0 | 0.00 | 0.00 | 0.00 | 42 | 1024.3 |
| 20260906142919 | 16 | 252 | 0.0 | 0.0 | 0.00 | 0.00 | 0.00 | 41 | 1024.2 |
| 20260906142413 | 16 | 252 | 0.0 | 0.0 | 0.00 | 0.00 | 0.00 | 41 | 1024.2 |
| 20260906142125 | 15 | 253 | 0.0 | 0.0 | 0.00 | 0.00 | 0.00 | 38 | 1024.2 |
| 20260906141615 | 15 | 224 | 0.0 | 0.0 | 0.00 | 0.00 | 0.00 | 37 | 1024.2 |
| 20260906141041 | 15 | 225 | 0.0 | 1.6 | 0.00 | 0.00 | 0.00 | 38 | 1024.1 |
| 20260906140933 | 15 | 224 | 0.0 | 1.6 | 0.00 | 0.00 | 0.00 | 38 | 1024.1 |
| 20260906135831 | 14 | 222 | 0.0 | 6.4 | 0.00 | 0.00 | 0.00 | 39 | 1024.1 |
| 20260906135543 | 13 | 213 | 0.0 | 6.4 | 0.00 | 0.00 | 0.00 | 40 | 1023.9 |
| 20260906134825 | 13 | 215 | 0.0 | 1.6 | 0.00 | 0.00 | 0.00 | 41 | 1023.9 |
| 20260906134324 | 13 | 213 | 0.0 | 1.6 | 0.00 | 0.00 | 0.00 | 41 | 1023.9 |
| 20260906133826 | 13 | 219 | 0.0 | 0.0 | 0.00 | 0.00 | 0.00 | 41 | 1023.8 |
| 20260906133325 | 12 | 211 | 0.0 | 0.0 | 0.00 | 0.00 | 0.00 | 42 | 1023.8 |
| 20260906132824 | 12 | 211 | 0.0 | 4.8 | 0.00 | 0.00 | 0.00 | 42 | 1023.7 |
| 20260906132323 | 12 | 210 | 0.0 | 4.8 | 0.00 | 0.00 | 0.00 | 43 | 1023.7 |
| 20260906131821 | 12 | 211 | 0.0 | 0.0 | 0.00 | 0.00 | 0.00 | 43 | 1023.7 |
| 20260906131321 | 11 | 207 | 0.0 | 0.0 | 0.00 | 0.00 | 0.00 | 43 | 1023.7 |
| 20260906130819 | 11 | 202 | 0.0 | 0.0 | 0.00 | 0.00 | 0.00 | 43 | 1023.6 |
| 20260906130321 | 11 | 201 | 0.0 | 0.0 | 0.00 | 0.00 | 0.00 | 43 | 1023.5 |
| 20260906125822 | 11 | 206 | 0.0 | 0.0 | 0.00 | 0.00 | 0.00 | 43 | 1023.5 |
| 20260906125318 | 11 | 206 | 1.6 | 9.7 | 0.00 | 0.00 | 0.00 | 43 | 1023.5 |
| 20260906124818 | 11 | 205 | 1.6 | 9.7 | 0.00 | 0.00 | 0.00 | 43 | 1023.5 |
| 20260906124318 | 11 | 210 | 0.0 | 6.4 | 0.00 | 0.00 | 0.00 | 44 | 1023.5 |
| 20260906123818 | 11 | 211 | 0.0 | 0.0 | 0.00 | 0.00 | 0.00 | 44 | 1023.5 |
| 20260906123320 | 11 | 211 | 0.0 | 0.0 | 0.00 | 0.00 | 0.00 | 43 | 1023.3 |
| 20260906123043 | 12 | 211 | 0.0 | 0.0 | 0.00 | 0.00 | 0.00 | 42 | 1023.3 |
| 20260906122316 | 12 | 211 | 0.0 | 0.0 | 0.00 | 0.00 | 0.00 | 42 | 1023.3 |
| 20260906121815 | 12 | 211 | 0.0 | 0.0 | 0.00 | 0.00 | 0.00 | 42 | 1023.2 |
| 20260906121536 | 12 | 207 | 0.0 | 0.0 | 0.00 | 0.00 | 0.00 | 42 | 1023.2 |
| 20260906120810 | 11 | 207 | 0.0 | 0.0 | 0.00 | 0.00 | 0.00 | 43 | 1023.2 |
| 20260906120309 | 11 | 211 | 0.0 | 0.0 | 0.00 | 0.00 | 0.00 | 42 | 1023.3 |
| 20260906120025 | 12 | 211 | 0.0 | 11.3 | 0.00 | 0.00 | 0.00 | 41 | 1023.3 |
| 20260906115306 | 12 | 211 | 0.0 | 11.3 | 0.00 | 0.00 | 0.00 | 41 | 1023.3 |
| 20260906114801 | 12 | 209 | 0.0 | 0.0 | 0.00 | 0.00 | 0.00 | 40 | 1023.3 |
| 20260906114301 | 13 | 209 | 0.0 | 0.0 | 0.00 | 0.00 | 0.00 | 39 | 1023.2 |
| 20260906113800 | 13 | 209 | 0.0 | 0.0 | 0.00 | 0.00 | 0.00 | 39 | 1023.2 |
| 20260906113301 | 13 | 205 | 0.0 | 0.0 | 0.00 | 0.00 | 0.00 | 39 | 1023.3 |
| 20260906112755 | 13 | 205 | 0.0 | 0.0 | 0.00 | 0.00 | 0.00 | 39 | 1023.2 |
| 20260906112523 | 13 | 209 | 0.0 | 1.6 | 0.00 | 0.00 | 0.00 | 39 | 1023.3 |
| 20260906111752 | 13 | 209 | 0.0 | 1.6 | 0.00 | 0.00 | 0.00 | 39 | 1023.3 |
| 20260906111252 | 13 | 213 | 0.0 | 0.0 | 0.00 | 0.00 | 0.00 | 39 | 1023.3 |
| 20260906110748 | 13 | 221 | 0.0 | 0.0 | 0.00 | 0.00 | 0.00 | 39 | 1023.3 |
| 20260906110247 | 13 | 212 | 0.0 | 1.6 | 0.00 | 0.00 | 0.00 | 39 | 1023.3 |
| 20260906105749 | 13 | 211 | 0.0 | 1.6 | 0.00 | 0.00 | 0.00 | 39 | 1023.3 |
| 20260906105247 | 13 | 214 | 0.0 | 1.6 | 0.00 | 0.00 | 0.00 | 38 | 1023.3 |
| 20260906104747 | 13 | 211 | 0.0 | 0.0 | 0.00 | 0.00 | 0.00 | 38 | 1023.3 |
| 20260906104246 | 13 | 209 | 0.0 | 9.7 | 0.00 | 0.00 | 0.00 | 38 | 1023.3 |
| 20260906103747 | 13 | 209 | 0.0 | 9.7 | 0.00 | 0.00 | 0.00 | 39 | 1023.3 |
| 20260906103509 | 13 | 209 | 0.0 | 0.0 | 0.00 | 0.00 | 0.00 | 39 | 1023.3 |
| 20260906102743 | 13 | 205 | 0.0 | 9.7 | 0.00 | 0.00 | 0.00 | 39 | 1023.3 |
| 20260906102242 | 13 | 207 | 0.0 | 9.7 | 0.00 | 0.00 | 0.00 | 39 | 1023.3 |
| 20260906102006 | 12 | 216 | 0.0 | 6.4 | 0.00 | 0.00 | 0.00 | 39 | 1023.3 |
| 20260906101240 | 12 | 211 | 0.0 | 8.0 | 0.00 | 0.00 | 0.00 | 39 | 1023.3 |
| 20260906100739 | 12 | 209 | 0.0 | 8.0 | 0.00 | 0.00 | 0.00 | 40 | 1023.2 |
| 20260906100235 | 12 | 206 | 0.0 | 8.0 | 0.00 | 0.00 | 0.00 | 39 | 1023.2 |
| 20260906095737 | 12 | 209 | 0.0 | 11.3 | 0.00 | 0.00 | 0.00 | 39 | 1023.2 |
| 20260906095237 | 12 | 205 | 0.0 | 11.3 | 0.00 | 0.00 | 0.00 | 39 | 1023.2 |
| 20260906094737 | 13 | 209 | 0.0 | 6.4 | 0.00 | 0.00 | 0.00 | 38 | 1023.2 |
| 20260906094234 | 13 | 211 | 0.0 | 0.0 | 0.00 | 0.00 | 0.00 | 38 | 1023.2 |
| 20260906093734 | 13 | 211 | 0.0 | 0.0 | 0.00 | 0.00 | 0.00 | 37 | 1023.1 |
| 20260906093233 | 13 | 228 | 0.0 | 8.0 | 0.00 | 0.00 | 0.00 | 37 | 1023.1 |
| 20260906092733 | 13 | 212 | 0.0 | 8.0 | 0.00 | 0.00 | 0.00 | 38 | 1023.1 |
| 20260906092229 | 13 | 223 | 0.0 | 0.0 | 0.00 | 0.00 | 0.00 | 38 | 1023.0 |
| 20260906091947 | 13 | 219 | 0.0 | 0.0 | 0.00 | 0.00 | 0.00 | 37 | 1023.1 |
| 20260906091217 | 13 | 220 | 1.6 | 11.3 | 0.00 | 0.00 | 0.00 | 37 | 1023.1 |
| 20260906090719 | 13 | 222 | 1.6 | 11.3 | 0.00 | 0.00 | 0.00 | 38 | 1023.1 |
| 20260906090217 | 12 | 202 | 0.0 | 0.0 | 0.00 | 0.00 | 0.00 | 40 | 1023.1 |
| 20260906085720 | 12 | 225 | 0.0 | 1.6 | 0.00 | 0.00 | 0.00 | 41 | 1023.0 |
| 20260906085215 | 12 | 252 | 0.0 | 3.2 | 0.00 | 0.00 | 0.00 | 41 | 1023.0 |
| 20260906084719 | 13 | 245 | 0.0 | 3.2 | 0.00 | 0.00 | 0.00 | 39 | 1023.0 |
| 20260906084216 | 13 | 232 | 0.0 | 6.4 | 0.00 | 0.00 | 0.00 | 38 | 1023.0 |
| 20260906083719 | 13 | 230 | 0.0 | 6.4 | 0.00 | 0.00 | 0.00 | 37 | 1022.8 |
| 20260906083213 | 13 | 220 | 0.0 | 3.2 | 0.00 | 0.00 | 0.00 | 37 | 1023.0 |
| 20260906082720 | 14 | 234 | 0.0 | 4.8 | 0.00 | 0.00 | 0.00 | 36 | 1023.0 |
| 20260906082212 | 14 | 226 | 0.0 | 4.8 | 0.00 | 0.00 | 0.00 | 36 | 1023.0 |
| 20260906081928 | 14 | 209 | 0.0 | 4.8 | 0.00 | 0.00 | 0.00 | 36 | 1023.1 |
| 20260906081212 | 13 | 215 | 0.0 | 4.8 | 0.00 | 0.00 | 0.00 | 36 | 1023.0 |
| 20260906080713 | 13 | 227 | 0.0 | 4.8 | 0.00 | 0.00 | 0.00 | 37 | 1023.0 |
| 20260906080212 | 13 | 224 | 1.6 | 8.0 | 0.00 | 0.00 | 0.00 | 37 | 1023.1 |
| 20260906075712 | 13 | 231 | 0.0 | 8.0 | 0.00 | 0.00 | 0.00 | 38 | 1023.0 |
| 20260906075211 | 13 | 214 | 0.0 | 3.2 | 0.00 | 0.00 | 0.00 | 37 | 1023.1 |
| 20260906074708 | 13 | 214 | 0.0 | 0.0 | 0.00 | 0.00 | 0.00 | 38 | 1023.1 |
| 20260906074207 | 13 | 214 | 0.0 | 1.6 | 0.00 | 0.00 | 0.00 | 37 | 1023.1 |
| 20260906073704 | 13 | 214 | 0.0 | 3.2 | 0.00 | 0.00 | 0.00 | 37 | 1023.1 |
| 20260906073205 | 14 | 214 | 0.0 | 3.2 | 0.00 | 0.00 | 0.00 | 36 | 1023.0 |
| 20260906072928 | 15 | 214 | 0.0 | 0.0 | 0.00 | 0.00 | 0.00 | 34 | 1023.0 |
| 20260906072201 | 15 | 214 | 0.0 | 0.0 | 0.00 | 0.00 | 0.00 | 34 | 1023.0 |
| 20260906071701 | 14 | 214 | 0.0 | 1.6 | 0.00 | 0.00 | 0.00 | 34 | 1023.0 |
| 20260906071158 | 14 | 215 | 0.0 | 8.0 | 0.00 | 0.00 | 0.00 | 34 | 1023.0 |
| 20260906070921 | 15 | 209 | 1.6 | 8.0 | 0.00 | 0.00 | 0.00 | 33 | 1023.1 |
| 20260906070159 | 15 | 210 | 0.0 | 6.4 | 0.00 | 0.00 | 0.00 | 33 | 1023.1 |
| 20260906065657 | 15 | 204 | 0.0 | 1.6 | 0.00 | 0.00 | 0.00 | 33 | 1023.1 |
| 20260906065156 | 15 | 204 | 0.0 | 0.0 | 0.00 | 0.00 | 0.00 | 32 | 1023.0 |
| 20260906064653 | 15 | 204 | 0.0 | 3.2 | 0.00 | 0.00 | 0.00 | 32 | 1023.0 |
| 20260906064150 | 15 | 204 | 1.6 | 6.4 | 0.00 | 0.00 | 0.00 | 31 | 1023.0 |
| 20260906063645 | 15 | 204 | 1.6 | 6.4 | 0.00 | 0.00 | 0.00 | 31 | 1023.0 |
| 20260906063138 | 15 | 201 | 0.0 | 0.0 | 0.00 | 0.00 | 0.00 | 31 | 1023.0 |
| 20260906062637 | 15 | 201 | 0.0 | 0.0 | 0.00 | 0.00 | 0.00 | 31 | 1022.8 |
| 20260906062138 | 16 | 201 | 0.0 | 0.0 | 0.00 | 0.00 | 0.00 | 30 | 1022.8 |
| 20260906061852 | 16 | 201 | 0.0 | 8.0 | 0.00 | 0.00 | 0.00 | 30 | 1022.8 |
| 20260906061133 | 16 | 207 | 0.0 | 8.0 | 0.00 | 0.00 | 0.00 | 30 | 1022.8 |
| 20260906060852 | 16 | 207 | 0.0 | 1.6 | 0.00 | 0.00 | 0.00 | 30 | 1022.8 |
| 20260906060130 | 16 | 206 | 0.0 | 0.0 | 0.00 | 0.00 | 0.00 | 30 | 1022.8 |
| 20260906055848 | 16 | 207 | 0.0 | 0.0 | 0.00 | 0.00 | 0.00 | 30 | 1022.8 |
| 20260906055129 | 16 | 209 | 0.0 | 3.2 | 0.00 | 0.00 | 0.00 | 30 | 1022.8 |
| 20260906054847 | 16 | 208 | 0.0 | 3.2 | 0.00 | 0.00 | 0.00 | 30 | 1022.8 |
| 20260906054127 | 15 | 207 | 0.0 | 4.8 | 0.00 | 0.00 | 0.00 | 31 | 1023.0 |
| 20260906053626 | 15 | 208 | 0.0 | 6.4 | 0.00 | 0.00 | 0.00 | 31 | 1022.8 |
| 20260906053126 | 16 | 208 | 1.6 | 9.7 | 0.00 | 0.00 | 0.00 | 31 | 1022.8 |
| 20260906052624 | 16 | 207 | 3.2 | 9.7 | 0.00 | 0.00 | 0.00 | 30 | 1022.8 |
| 20260906052120 | 16 | 0 | 1.6 | 9.7 | 0.00 | 0.00 | 0.00 | 30 | 1022.8 |
| 20260906051621 | 16 | 204 | 1.6 | 9.7 | 0.00 | 0.00 | 0.00 | 30 | 1022.8 |
| 20260906051121 | 16 | 205 | 0.0 | 9.7 | 0.00 | 0.00 | 0.00 | 30 | 1022.8 |
| 20260906050844 | 16 | 205 | 0.0 | 1.6 | 0.00 | 0.00 | 0.00 | 30 | 1022.8 |
| 20260906050118 | 16 | 205 | 0.0 | 4.8 | 0.00 | 0.00 | 0.00 | 29 | 1022.8 |
| 20260906045621 | 16 | 205 | 0.0 | 4.8 | 0.00 | 0.00 | 0.00 | 29 | 1022.8 |
| 20260906045118 | 16 | 196 | 0.0 | 0.0 | 0.00 | 0.00 | 0.00 | 28 | 1022.8 |
| 20260906044617 | 16 | 196 | 0.0 | 0.0 | 0.00 | 0.00 | 0.00 | 28 | 1022.8 |
| 20260906044115 | 17 | 196 | 0.0 | 0.0 | 0.00 | 0.00 | 0.00 | 28 | 1023.0 |
| 20260906043612 | 17 | 196 | 0.0 | 0.0 | 0.00 | 0.00 | 0.00 | 28 | 1022.8 |
| 20260906043113 | 17 | 196 | 0.0 | 0.0 | 0.00 | 0.00 | 0.00 | 28 | 1023.0 |
| 20260906042612 | 17 | 204 | 0.0 | 0.0 | 0.00 | 0.00 | 0.00 | 28 | 1023.0 |
| 20260906042112 | 17 | 204 | 0.0 | 0.0 | 0.00 | 0.00 | 0.00 | 28 | 1022.8 |
| 20260906041609 | 17 | 204 | 0.0 | 0.0 | 0.00 | 0.00 | 0.00 | 28 | 1022.8 |
| 20260906041107 | 17 | 204 | 0.0 | 0.0 | 0.00 | 0.00 | 0.00 | 28 | 1023.0 |
| 20260906040557 | 17 | 192 | 0.0 | 0.0 | 0.00 | 0.00 | 0.00 | 28 | 1022.8 |
| 20260906040051 | 17 | 192 | 0.0 | 0.0 | 0.00 | 0.00 | 0.00 | 28 | 1022.8 |
| 20260906035544 | 17 | 192 | 0.0 | 0.0 | 0.00 | 0.00 | 0.00 | 27 | 1022.8 |
| 20260906035032 | 17 | 192 | 0.0 | 0.0 | 0.00 | 0.00 | 0.00 | 27 | 1022.7 |
| 20260906034526 | 17 | 192 | 0.0 | 0.0 | 0.00 | 0.00 | 0.00 | 27 | 1022.7 |
| 20260906034019 | 17 | 192 | 0.0 | 4.8 | 0.00 | 0.00 | 0.00 | 28 | 1022.7 |
| 20260906033509 | 17 | 192 | 0.0 | 4.8 | 0.00 | 0.00 | 0.00 | 28 | 1022.7 |
| 20260906033003 | 17 | 177 | 0.0 | 1.6 | 0.00 | 0.00 | 0.00 | 28 | 1022.7 |
| 20260906032456 | 17 | 177 | 0.0 | 0.0 | 0.00 | 0.00 | 0.00 | 28 | 1022.5 |
| 20260906031943 | 17 | 177 | 0.0 | 0.0 | 0.00 | 0.00 | 0.00 | 27 | 1022.5 |
| 20260906031919 | 17 | 177 | 0.0 | 0.0 | 0.00 | 0.00 | 0.00 | 27 | 1022.5 |
| 20260906030931 | 17 | 177 | 0.0 | 0.0 | 0.00 | 0.00 | 0.00 | 27 | 1022.3 |
| 20260906030647 | 17 | 177 | 0.0 | 0.0 | 0.00 | 0.00 | 0.00 | 27 | 1022.5 |
| 20260906025915 | 17 | 177 | 0.0 | 0.0 | 0.00 | 0.00 | 0.00 | 26 | 1022.3 |
| 20260906025409 | 18 | 177 | 0.0 | 0.0 | 0.00 | 0.00 | 0.00 | 26 | 1022.3 |
| 20260906024855 | 18 | 177 | 0.0 | 0.0 | 0.00 | 0.00 | 0.00 | 24 | 1022.3 |
| 20260906024350 | 18 | 177 | 0.0 | 0.0 | 0.00 | 0.00 | 0.00 | 24 | 1022.2 |
| 20260906023843 | 18 | 177 | 0.0 | 0.0 | 0.00 | 0.00 | 0.00 | 24 | 1022.1 |
| 20260906023333 | 18 | 177 | 0.0 | 0.0 | 0.00 | 0.00 | 0.00 | 24 | 1022.1 |
| 20260906022827 | 18 | 177 | 0.0 | 1.6 | 0.00 | 0.00 | 0.00 | 24 | 1022.0 |
| 20260906022321 | 19 | 177 | 0.0 | 3.2 | 0.00 | 0.00 | 0.00 | 24 | 1022.0 |
| 20260906021808 | 19 | 175 | 0.0 | 3.2 | 0.00 | 0.00 | 0.00 | 24 | 1022.0 |
| 20260906021301 | 19 | 175 | 0.0 | 4.8 | 0.00 | 0.00 | 0.00 | 23 | 1022.0 |
| 20260906021022 | 20 | 173 | 1.6 | 6.4 | 0.00 | 0.00 | 0.00 | 23 | 1022.0 |
| 20260906020245 | 20 | 200 | 1.6 | 6.4 | 0.00 | 0.00 | 0.00 | 23 | 1021.9 |
| 20260906015739 | 20 | 178 | 0.0 | 6.4 | 0.00 | 0.00 | 0.00 | 22 | 1021.9 |
| 20260906015451 | 20 | 157 | 1.6 | 4.8 | 0.00 | 0.00 | 0.00 | 22 | 1021.9 |
| 20260906014732 | 21 | 157 | 1.6 | 4.8 | 0.00 | 0.00 | 0.00 | 21 | 1021.9 |
| 20260906014231 | 21 | 155 | 1.6 | 4.8 | 0.00 | 0.00 | 0.00 | 20 | 1021.9 |
| 20260906013728 | 22 | 180 | 1.6 | 8.0 | 0.00 | 0.00 | 0.00 | 20 | 1021.9 |
| 20260906013226 | 22 | 169 | 1.6 | 8.0 | 0.00 | 0.00 | 0.00 | 20 | 1021.9 |
| 20260906012727 | 22 | 165 | 3.2 | 16.1 | 0.00 | 0.00 | 0.00 | 19 | 1021.9 |
| 20260906012448 | 22 | 146 | 3.2 | 16.1 | 0.00 | 0.00 | 0.00 | 19 | 1021.9 |
| 20260906011726 | 22 | 161 | 1.6 | 11.3 | 0.00 | 0.00 | 0.00 | 19 | 1021.9 |
| 20260906011228 | 23 | 144 | 3.2 | 16.1 | 0.00 | 0.00 | 0.00 | 19 | 1021.9 |
| 20260906010727 | 23 | 160 | 1.6 | 16.1 | 0.00 | 0.00 | 0.00 | 19 | 1021.9 |
| 20260906010448 | 23 | 191 | 3.2 | 14.5 | 0.00 | 0.00 | 0.00 | 19 | 1021.9 |
| 20260906005725 | 23 | 182 | 3.2 | 16.1 | 0.00 | 0.00 | 0.00 | 18 | 1021.9 |
| 20260906005709 | 23 | 203 | 1.6 | 16.1 | 0.00 | 0.00 | 0.00 | 18 | 1022.0 |
| 20260906004725 | 23 | 179 | 1.6 | 12.9 | 0.00 | 0.00 | 0.00 | 18 | 1021.9 |
| 20260906004219 | 24 | 173 | 3.2 | 12.9 | 0.00 | 0.00 | 0.00 | 18 | 1021.9 |
| 20260906003714 | 24 | 205 | 3.2 | 16.1 | 0.00 | 0.00 | 0.00 | 18 | 1021.9 |
| 20260906003206 | 24 | 142 | 3.2 | 16.1 | 0.00 | 0.00 | 0.00 | 18 | 1021.9 |
| 20260906002705 | 24 | 209 | 3.2 | 16.1 | 0.00 | 0.00 | 0.00 | 18 | 1021.9 |
| 20260906002206 | 24 | 193 | 3.2 | 14.5 | 0.00 | 0.00 | 0.00 | 18 | 1021.9 |
| 20260906001707 | 25 | 160 | 1.6 | 12.9 | 0.00 | 0.00 | 0.00 | 17 | 1021.9 |
| 20260906001208 | 24 | 202 | 3.2 | 14.5 | 0.00 | 0.00 | 0.00 | 18 | 1021.9 |
| 20260906000708 | 24 | 185 | 3.2 | 14.5 | 0.00 | 0.00 | 0.00 | 18 | 1022.0 |
| 20260906000426 | 24 | 154 | 3.2 | 14.5 | 0.00 | 0.00 | 0.00 | 18 | 1021.9 |
| 20260905235928 | 24 | 142 | 3.2 | 14.5 | 0.00 | 0.00 | 0.00 | 17 | 1021.9 |
| 20260905235204 | 25 | 143 | 4.8 | 17.7 | 0.00 | 0.00 | 0.00 | 17 | 1021.9 |